Location: Muenchen
(48.1800°N, 11.5800°E)
Time: 23:11:45
(UTC+02:00)

Tiros 1 - Visible Passes

Search period start: 22 June 2018 00:00
Search period end: 02 July 2018 00:00
Orbit: 630 x 664 km, 48.4° (Epoch: 22 June)

Date Brightness Start Highest point End Pass type
(mag) Time Alt. Az. Time Alt. Az. Time Alt. Az.
22 Jun 7.5 00:45:28 10° W 00:49:57 43° SSW 00:50:55 38° S visible
22 Jun 7.1 23:29:23 10° W 23:34:04 69° SSW 23:37:33 18° ESE visible
23 Jun 8.4 01:11:56 10° W 01:15:10 24° SW 01:15:10 24° SW visible
23 Jun 7.2 22:13:20 10° W 22:18:02 89° SSW 22:22:48 10° E visible
23 Jun 7.5 23:55:36 10° W 00:00:05 45° SSW 00:01:54 30° SSE visible
24 Jun 9.4 01:39:17 10° WSW 01:39:31 11° WSW 01:39:31 11° WSW visible
24 Jun 7.1 22:39:30 10° W 22:44:11 71° SSW 22:48:42 11° ESE visible
25 Jun 8.2 00:22:01 10° W 00:25:58 26° SW 00:26:19 26° SSW visible
25 Jun 7.5 23:05:43 10° W 23:10:14 47° SSW 23:13:11 20° SE visible
26 Jun 9.2 00:49:11 10° WSW 00:50:50 14° SW 00:50:50 14° SW visible
26 Jun 7.2 21:49:39 10° W 21:54:19 73° SSW 21:59:02 10° ESE visible
26 Jun 8.3 23:32:06 10° W 23:36:07 28° SW 23:37:45 23° S visible
27 Jun 7.6 22:15:50 10° W 22:20:22 49° SSW 22:24:43 11° SE visible
27 Jun 9.0 23:59:08 10° WSW 00:01:49 15° SW 00:02:22 15° SW visible
28 Jun 8.3 22:42:12 10° W 22:46:16 29° SW 22:49:24 15° SSE visible
29 Jun 9.1 23:09:08 10° W 23:12:00 16° SW 23:14:07 12° SSW visible
30 Jun 8.3 21:52:18 10° W 21:56:25 31° SSW 22:00:34 10° SSE visible
01 Jul 9.1 22:19:08 10° W 22:22:09 17° SW 22:25:12 10° S visible
